Lid_Strength_Index
8 8 8 7 7 7 7 7 7 7 7 6 6 5 3 3 2 3 3 3 3 2
9 9 9 9 9 9 9 8 9 9 9 9 8 7 5 3 4 4 4 4 3 2
11 11 10 10 10 11 11 11 11 11 10 10 9 8 8 8 6 5 6 5 5 6
11 11 11 11 11 12 12 12 12 11 11 10 10 10 10 10 9 9 9 9 9 10
12 12 13 12 12 12 13 12 12 11 11 11 11 11 11 11 11 11 11 11 11 11
12 12 13 13 13 13 13 12 12 11 12 12 12 11 11 11 11 12 11 11 10 10
13 13 11 12 12 11 12 12 12 12 12 11 12 12 11 11 11 11 11 10 10 11
12 11 10 10 11 11 11 11 10 10 10 10 10 11 11 11 11 12 12 12 11 10
11 11 11 11 11 11 11 11 10 10 10 10 10 9 10 11 12 13 13 13 13 12
11 11 11 12 12 12 12 11 11 11 10 10 10 10 11 12 14 16 16 16 16 15
11 11 11 12 12 12 12 12 13 13 13 13 11 11 11 13 19 21 21 21 20 19
11 11 12 12 12 12 13 13 14 16 18 18 16 12 12 16 20 20 19 17 16 16
11 11 12 13 13 13 13 15 17 18 21 13 19 12 13 15 17 19 17 18 17 12
11 12 12 13 13 14 16 18 19 17 19 18 16 16 12 12 16 17 17 16 17 16